OZ1IEP-5 Weather Reports


time (UTC)temp
C
wind
direction
speed
KPH
gust
KPH
rain 1hr
cm
rain 24hr
cm
rain mn
cm
humidity
%
barometer
mb
20260503235006 12 136 0.0 0.0 0.03 0.58 0.08 93 1004.7
20260503234006 12 136 0.0 1.6 0.03 0.58 0.08 93 1004.9
20260503233009 12 136 1.6 3.2 0.05 0.58 0.08 93 1005.0
20260503232006 12 136 0.0 1.6 0.05 0.58 0.08 92 1005.1
20260503231005 12 136 0.0 3.2 0.05 0.58 0.08 92 1005.1
20260503230008 12 136 0.0 4.8 0.08 0.58 0.08 92 1005.3
20260503225006 12 118 1.6 4.8 0.08 0.56 0.05 92 1005.5
20260503224006 12 134 3.2 9.7 0.08 0.56 0.05 92 1005.6
20260503223009 12 124 4.8 9.7 0.10 0.53 0.05 92 1005.6
20260503222006 12 117 4.8 11.3 0.10 0.51 0.03 92 1005.7
20260503221006 12 118 4.8 11.3 0.15 0.51 0.03 92 1005.8
20260503220009 12 128 3.2 8.0 0.18 0.51 0.00 92 1005.8
20260503215006 12 140 4.8 4.8 0.18 0.48 0.48 92 1006.1
20260503214006 12 139 0.0 1.6 0.18 0.48 0.48 92 1006.3
20260503213009 12 139 0.0 4.8 0.15 0.46 0.46 91 1006.2
20260503212006 12 140 0.0 8.0 0.15 0.43 0.43 91 1006.3
20260503211006 12 136 3.2 8.0 0.15 0.38 0.38 91 1006.4
20260503210008 12 57 0.0 3.2 0.15 0.33 0.33 91 1006.2
20260503205006 12 57 0.0 8.0 0.20 0.30 0.30 91 1005.6
20260503204006 12 53 1.6 12.9 0.30 0.30 0.30 90 1005.7
20260503203009 12 32 1.6 8.0 0.30 0.30 0.30 90 1006.1
20260503202006 12 38 1.6 9.7 0.28 0.28 0.28 89 1006.2
20260503201006 12 6 1.6 8.0 0.23 0.23 0.23 88 1006.4
20260503200008 13 73 0.0 3.2 0.20 0.20 0.20 88 1007.2
20260503195006 13 73 0.0 3.2 0.10 0.10 0.10 87 1007.0
20260503194005 13 72 0.0 3.2 0.00 0.00 0.00 86 1007.2
20260503193008 13 21 0.0 4.8 0.00 0.00 0.00 86 1006.7
20260503192006 13 52 0.0 4.8 0.00 0.00 0.00 86 1006.8
20260503191006 13 66 0.0 4.8 0.00 0.00 0.00 85 1006.7
20260503190019 13 42 1.6 8.0 0.00 0.00 0.00 85 1006.6
20260503185005 13 18 4.8 14.5 0.00 0.00 0.00 84 1006.5
20260503184006 13 30 8.0 16.1 0.00 0.00 0.00 84 1006.5
20260503183008 13 36 1.6 11.3 0.00 0.00 0.00 83 1006.4
20260503182006 13 33 3.2 8.0 0.00 0.00 0.00 82 1006.6
20260503181006 13 38 4.8 11.3 0.00 0.00 0.00 82 1006.7
20260503180008 13 40 1.6 9.7 0.00 0.00 0.00 83 1006.9
20260503175005 13 33 1.6 8.0 0.00 0.00 0.00 84 1006.9
20260503174006 13 29 3.2 4.8 0.00 0.00 0.00 83 1006.8
20260503173008 13 28 1.6 9.7 0.00 0.00 0.00 83 1006.8
20260503172006 13 35 1.6 9.7 0.00 0.00 0.00 82 1006.8
20260503171005 13 68 1.6 8.0 0.00 0.00 0.00 82 1007.1
20260503151006 14 310 6.4 8.0 0.00 0.00 0.00 81 1008.3
20260503131005 15 200 0.0 4.8 0.00 0.00 0.00 84 1009.3
20260503081005 13 229 3.2 11.3 0.00 0.00 0.00 88 1010.2
20260503072005 12 218 1.6 8.0 0.00 0.00 0.00 91 1009.8
20260503071006 11 216 3.2 4.8 0.00 0.00 0.00 91 1009.8
20260503055006 10 257 0.0 1.6 0.00 0.00 0.00 92 1009.9
20260503054005 10 245 0.0 1.6 0.00 0.00 0.00 92 1009.8
20260503053008 10 271 0.0 3.2 0.00 0.00 0.00 91 1009.9
20260503052006 10 267 1.6 19.3 0.00 0.00 0.00 91 1009.9
20260503051006 10 295 4.8 19.3 0.00 0.00 0.00 91 1009.8
20260503050008 11 297 8.0 20.9 0.00 0.00 0.00 91 1009.8
20260503045005 11 295 1.6 8.0 0.00 0.00 0.00 91 1009.8
20260503044006 11 275 0.0 8.0 0.00 0.00 0.00 91 1009.7
20260503043009 11 227 1.6 4.8 0.00 0.00 0.00 91 1009.7
20260503042006 11 230 1.6 9.7 0.00 0.00 0.00 90 1009.8
20260503041006 11 249 0.0 4.8 0.00 0.00 0.00 90 1009.8
20260503040008 11 230 0.0 8.0 0.00 0.00 0.00 90 1009.8
20260503035005 10 231 1.6 8.0 0.00 0.00 0.00 89 1009.7
20260503034005 10 238 0.0 1.6 0.00 0.00 0.00 87 1009.4
20260503033008 10 208 0.0 3.2 0.00 0.00 0.00 87 1009.4
20260503032005 10 181 0.0 3.2 0.00 0.00 0.00 86 1009.5
20260503031006 10 219 0.0 3.2 0.00 0.00 0.00 85 1009.6
20260503030008 10 226 0.0 1.6 0.00 0.00 0.00 84 1009.6
20260503025006 10 226 0.0 4.8 0.00 0.00 0.00 84 1009.7
20260503024006 10 200 0.0 3.2 0.00 0.00 0.00 83 1009.6
20260503023008 10 198 0.0 1.6 0.00 0.00 0.00 82 1009.7
20260503022006 10 198 0.0 3.2 0.00 0.00 0.00 80 1009.7
20260503021005 10 197 0.0 4.8 0.00 0.00 0.00 79 1009.8
20260503020008 10 195 0.0 4.8 0.00 0.00 0.00 78 1009.8
20260503015006 11 188 0.0 4.8 0.00 0.00 0.00 78 1009.8
20260503014005 11 170 0.0 3.2 0.00 0.00 0.00 78 1009.8
20260503013009 11 169 0.0 8.0 0.00 0.00 0.00 77 1009.8
20260503012006 11 180 0.0 4.8 0.00 0.00 0.00 76 1009.8
20260503011005 11 167 1.6 4.8 0.00 0.00 0.00 75 1009.7
20260503010008 11 172 1.6 4.8 0.00 0.00 0.00 74 1009.8
20260503005006 11 186 1.6 4.8 0.00 0.00 0.00 73 1009.8
20260503004006 12 198 0.0 3.2 0.00 0.00 0.00 73 1009.8
20260503003008 12 198 0.0 1.6 0.00 0.00 0.00 72 1009.8
20260503002006 12 198 0.0 1.6 0.00 0.00 0.00 72 1009.9
20260503001006 12 205 0.0 1.6 0.00 0.00 0.00 71 1009.9
20260503000008 12 205 0.0 4.8 0.00 0.00 0.00 70 1010.1